Regional Weather Roundup
Issued by NWS

Home | Current Version | Previous Version | Text Only | Print | Product List | Glossary Off
Versions: 1 2 3 4 5 6 7 8 9 10 11 12 13 14 15 16 17 18 19 20 21 22 23 24 25 26 27 28 29 30 31 32 33 34 35 36 37 38 39 40 41 42 43 44 45 46 47 48 49 50

000
ASUS43 KLOT 051912
RWRIL

ILLINOIS REGIONAL WEATHER ROUNDUP
NATIONAL WEATHER SERVICE CHICAGO/ROMEOVILLE IL
200 PM CDT SUN JUL 05 2015

NOTE: "FAIR" INDICATES FEW OR NO CLOUDS BELOW 12,000 FEET WITH NO
SIGNIFICANT WEATHER AND/OR OBSTRUCTIONS TO VISIBILITY.

* THESE STATIONS ARE NOT UNDER NWS QUALITY CONTROL. THEY ALSO MAY NOT
  REPORT WEATHER SUCH AS PRECIPITATION OR FOG.

ILZ001-002-007-009-015-016-024-052000-
NORTHWEST ILLINOIS

CITY           SKY/WX    TMP DP  RH WIND       PRES   REMARKS
MOLINE         MOSUNNY   82  66  58 S10       30.02F HX  84
STERLING*      MOSUNNY   82  66  57 S5        30.04F HX  85
SAVANNA*       PTSUNNY   82  64  54 S8        30.03F HX  83
$$

ILZ003-004-008-010-011-017-018-052000-
NORTH CENTRAL ILLINOIS

CITY           SKY/WX    TMP DP  RH WIND       PRES   REMARKS
ROCKFORD       MOSUNNY   82  64  54 SW9       30.06F HX  83
FREEPORT*      MOSUNNY   78  65  62 S10       30.06F HX  80
ROCHELLE*      MOSUNNY   80  64  58 S7        30.06F HX  81
DE KALB*       SUNNY     78  63  59 SE9       30.07F HX  80
PERU*          SUNNY     81  58  46 S7        30.06F HX  81
$$

ILZ005-006-012>014-019>023-052000-
NORTHEAST ILLINOIS

CITY           SKY/WX    TMP DP  RH WIND       PRES   REMARKS
CHICAGO-OHARE  MOSUNNY   82  59  45 CALM      30.05F HX  82
CHICAGO-MIDWAY MOSUNNY   84  60  44 S8        30.06F HX  84
AURORA         SUNNY     81  61  50 S9        30.07F HX  82
LANSING*       SUNNY     82  58  45 S5        30.08S HX  82
JOLIET*        SUNNY     82  64  55 CALM      30.06F HX  83
WAUKEGAN       SUNNY     76  60  57 SE13      30.06F
DUPAGE AIRPORT SUNNY     81  62  52 S9        30.06F HX  82
KANKAKEE*      SUNNY     83  64  53 S6        30.08F HX  84
WHEELING       SUNNY     82  59  45 SE9       30.07F HX  82
MORRIS*        MOSUNNY   81  61  50 S8        30.05F HX  82
ROMEOVILLE*    SUNNY     81  60  47 S8        30.07F HX  82
NORTHERLY ISL    N/A     73  62  68 E9          N/A
$$

LMZ740>746-052000-
SOUTHERN LAKE MICHIGAN

STATION/POSITION SKY/WX   TEMP    WIND        PRES    VSBY  WAVE
                          AIR SEA DIR/SP/G                  HT/PER
                          (F)     (DEG/KT/KT) (MB)    (MI)  (FT/S)
HARRISON CRIB              70      90/ 11/ 12   N/A
BURNHAM HARBOR             74      90/ 10/ 11   N/A
CALUMET HARBOR             72      50/  8/  9   N/A
BURNS HARBOR               73      40/  8/  9 1019.3S
MICHIGAN CITY              70      20/  5/  6   N/A
MICHIGAN CITY 6N           71 68   40/  6/  6   N/A           1
ST. JOSEPH                 71 64                N/A           0
$$

ILZ025>027-034>036-040-047-049-050-058-095>099-052000-
WEST-CENTRAL ILLINOIS

CITY           SKY/WX    TMP DP  RH WIND       PRES   REMARKS
QUINCY         MOSUNNY   84  69  60 S9        30.02F HX  88
GALESBURG*     MOSUNNY   81  66  60 S8        30.04F HX  83
MACOMB*        MOSUNNY   82  69  65 S5        30.05F HX  85
JACKSONVILLE*  PTSUNNY   83  69  61 SE6       30.04F HX  86
PITTSFIELD*    MOSUNNY   84  69  60 S6        30.05S HX  87
$$

ILZ028>032-037-038-041>044-048-051>054-059>061-052000-
CENTRAL ILLINOIS

CITY           SKY/WX    TMP DP  RH WIND       PRES   REMARKS
PONTIAC        SUNNY     81  65  58 S7        30.08F HX  83
BLOOMINGTON    MOSUNNY   81  65  58 S8        30.09F HX  83
DECATUR        PTSUNNY   80  63  55 VRB3      30.08F HX  81
PEORIA         MOSUNNY   83  62  49 SE6       30.05F HX  84
LACON*         MOSUNNY   82  63  53 SW7       30.05S HX  83
LINCOLN*       MOSUNNY   82  63  52 S8        30.06F HX  83
SPRINGFIELD    MOSUNNY   83  65  54 CALM      30.06F HX  85
TAYLORVILLE    SUNNY     81  64  57 SW5       30.07F HX  82
$$

ILZ033-039-045-046-055>057-062-063-052000-
EAST-CENTRAL ILLINOIS

CITY           SKY/WX    TMP DP  RH WIND       PRES   REMARKS
CHAMPAIGN      MOSUNNY   82  64  54 SW5       30.08F HX  83
DANVILLE*      SUNNY     80  64  56 CALM      30.05F HX  82
RANTOUL*       SUNNY    N/A N/A N/A CALM      30.08F
MATTOON        MOSUNNY   80  66  62 SE7       30.07F HX  82
PARIS*         MOSUNNY   81  66  60 S3        30.08S HX  83
$$

ILZ079-100>102-052000-
SOUTHWEST ILLINOIS

CITY           SKY/WX    TMP DP  RH WIND       PRES   REMARKS
BELLEVILLE     MOSUNNY   84  67  56 SE7       30.04F HX  87
CAHOKIA*       MOSUNNY   86  68  54 SE5       30.04F HX  89
SPARTA*        PTSUNNY   83  65  54 SE5       30.07F HX  85
$$

ILZ064>066-069>071-074>076-080>082-084>086-088>090-092>094-052000-
SOUTH-CENTRAL ILLINOIS

CITY           SKY/WX    TMP DP  RH WIND       PRES   REMARKS
CARBONDALE     CLOUDY    83  66  56 CALM      30.07S HX  85
CAIRO*         SUNNY     81  70  70 S3        30.09S HX  84
EFFINGHAM*     MOSUNNY   83  60  46 S6        30.09S HX  83
MARION         PTSUNNY   82  64  54 S7        30.09S HX  84
MT. VERNON     MOSUNNY   84  64  51 CALM      30.08S HX  86
CENTRALIA*     SUNNY     83  61  47 CALM      30.07F HX  83
SALEM*         MOSUNNY   84  62  47 SW3       30.08F HX  84
$$

ILZ067-068-072-073-078-083-087-091-052000-
SOUTHEAST ILLINOIS

CITY           SKY/WX    TMP DP  RH WIND       PRES   REMARKS
LAWRENCEVILLE  PTSUNNY   83  69  62 E5        30.06F HX  86
FLORA*         MOSUNNY   82  65  57 SE3       30.07F HX  84
FAIRFIELD*     MOSUNNY   83  68  60 SW3       30.06S HX  86
HARRISBURG*    MOSUNNY   82  66  57 SW3       30.08F HX  84
ROBINSON*      PTSUNNY   82  65  55 CALM      30.07F HX  84
CARMI*         MOSUNNY   83  64  51 W3        30.06S HX  84
$$

ABBREVIATIONS USED IN REMARKS
   TC - TEMPERATURE IN CELSIUS
  WCI - WIND CHILL INDEX
   HX - HEAT INDEX
  VSB - VISIBILITY
$$



USA.gov is the U.S. government's official web portal to all federal, state and local government web resources and services.